DW8587 Weather Reports


time (UTC)temp
C
wind
direction
speed
KPH
gust
KPH
rain 1hr
cm
rain 24hr
cm
rain mn
cm
humidity
%
barometer
mb
20260903033039 19 32 4.8 8.0 0.00 0.00 0.00 78 1017.1
20260903031545 19 34 6.4 12.9 0.00 0.00 0.00 79 1017.0
20260903030036 19 26 1.6 6.4 0.00 0.00 0.00 80 1016.8
20260903024536 18 37 1.6 4.8 0.00 0.00 0.00 81 1016.9
20260903023036 19 37 3.2 6.4 0.00 0.00 0.00 82 1017.0
20260903021532 19 37 0.0 3.2 0.00 0.00 0.00 80 1017.0
20260903020038 20 37 0.0 1.6 0.00 0.00 0.00 80 1017.0
20260903014527 20 37 0.0 3.2 0.00 0.00 0.00 79 1017.0
20260903013027 20 37 1.6 4.8 0.00 0.00 0.00 79 1017.0
20260903011526 20 37 1.6 4.8 0.00 0.00 0.00 80 1017.0
20260903010024 20 37 1.6 4.8 0.00 0.00 0.00 79 1017.0
20260903004522 20 37 0.0 4.8 0.00 0.00 0.00 79 1016.9
20260903003020 21 37 3.2 6.4 0.00 0.00 0.00 78 1017.0
20260903001518 21 32 4.8 8.0 0.00 0.00 0.00 76 1016.9
20260903000016 21 344 4.8 8.0 0.00 0.00 0.00 76 1016.8
20260902234513 21 39 6.4 11.3 0.00 0.00 0.00 75 1016.7
20260902233013 22 360 4.8 8.0 0.00 0.00 0.00 75 1016.7
20260902231512 22 338 1.6 4.8 0.00 0.00 0.00 75 1016.7
20260902230015 22 355 3.2 6.4 0.00 0.00 0.00 76 1016.7
20260902224509 22 40 6.4 8.0 0.00 0.00 0.00 76 1016.7
20260902223008 22 38 4.8 8.0 0.00 0.00 0.00 77 1016.6
20260902221507 21 355 3.2 6.4 0.00 0.00 0.00 79 1016.6
20260902220004 21 22 6.4 9.7 0.00 0.00 0.00 80 1016.6
20260902214504 22 37 4.8 8.0 0.00 0.00 0.00 79 1016.5
20260902213003 22 338 1.6 6.4 0.00 0.00 0.00 80 1016.5
20260902211503 22 36 3.2 14.5 0.00 0.00 0.00 79 1016.4
20260902210003 22 34 4.8 16.1 0.00 0.00 0.00 80 1016.2
20260902204501 22 37 8.0 14.5 0.00 0.00 0.00 80 1016.3
20260902203002 22 40 6.4 8.0 0.00 0.00 0.00 79 1016.1
20260902201502 22 39 6.4 11.3 0.00 0.00 0.00 79 1016.0
20260902200103 22 38 6.4 9.7 0.00 0.00 0.00 78 1016.0
20260902194602 23 44 3.2 8.0 0.00 0.00 0.00 77 1015.8
20260902193100 23 32 3.2 4.8 0.00 0.00 0.00 76 1015.9
20260902191600 24 40 3.2 6.4 0.00 0.00 0.00 74 1015.8
20260902184559 25 290 0.0 3.2 0.00 0.00 0.00 68 1015.3
20260902183110 26 290 0.0 1.6 0.00 0.00 0.00 66 1015.3
20260902181612 27 290 0.0 1.6 0.00 0.00 0.00 64 1015.3
20260902180057 27 290 0.0 3.2 0.00 0.00 0.00 62 1015.1
20260902174559 27 290 0.0 4.8 0.00 0.00 0.00 60 1015.0
20260902173114 28 294 0.0 3.2 0.00 0.00 0.00 60 1015.0
20260902171558 28 336 0.0 6.4 0.00 0.00 0.00 58 1015.0
20260902170056 29 248 3.2 8.0 0.00 0.00 0.00 56 1015.0
20260902164602 29 309 1.6 8.0 0.00 0.00 0.00 54 1014.9
20260902163055 30 310 1.6 8.0 0.00 0.00 0.00 55 1014.9
20260902161554 30 350 4.8 9.7 0.00 0.00 0.00 52 1014.9
20260902160053 30 330 3.2 8.0 0.00 0.00 0.00 52 1015.0
20260902154552 30 298 3.2 8.0 0.00 0.00 0.00 53 1015.1
20260902153059 30 268 6.4 14.5 0.00 0.00 0.00 55 1015.3
20260902151550 30 323 4.8 14.5 0.00 0.00 0.00 52 1015.3
20260902150047 31 303 4.8 11.3 0.00 0.00 0.00 52 1015.5
20260902144546 30 272 1.6 11.3 0.00 0.00 0.00 54 1015.6
20260902143047 30 343 4.8 9.7 0.00 0.00 0.00 51 1015.6
20260902141543 30 296 3.2 16.1 0.00 0.00 0.00 53 1015.7
20260902140041 30 294 4.8 14.5 0.00 0.00 0.00 53 1015.8
20260902134539 30 167 1.6 9.7 0.00 0.00 0.00 53 1015.9
20260902133038 30 144 4.8 11.3 0.00 0.00 0.00 52 1015.9
20260902131535 30 250 0.0 11.3 0.00 0.00 0.00 53 1016.1
20260902130030 29 319 3.2 8.0 0.00 0.00 0.00 56 1016.4
20260902124528 28 175 3.2 8.0 0.00 0.00 0.00 59 1016.5
20260902123028 28 118 1.6 4.8 0.00 0.00 0.00 60 1016.7
20260902121525 28 255 1.6 4.8 0.00 0.00 0.00 58 1016.8
20260902120025 28 327 0.0 6.4 0.00 0.00 0.00 59 1017.0
20260902114523 28 211 4.8 9.7 0.00 0.00 0.00 59 1017.1
20260902113023 28 205 4.8 14.5 0.00 0.00 0.00 60 1017.2
20260902111521 28 106 1.6 9.7 0.00 0.00 0.00 60 1017.5
20260902110035 28 133 3.2 11.3 0.00 0.00 0.00 62 1017.7
20260902104532 27 311 0.0 11.3 0.00 0.00 0.00 63 1017.8
20260902103035 27 248 3.2 8.0 0.00 0.00 0.00 63 1017.8
20260902101517 28 137 3.2 11.3 0.00 0.00 0.00 61 1017.9
20260902100014 27 142 4.8 9.7 0.00 0.00 0.00 63 1018.1
20260902094511 27 131 4.8 11.3 0.00 0.00 0.00 64 1018.2
20260902093010 26 53 0.0 6.4 0.00 0.00 0.00 65 1018.2
20260902091510 26 137 0.0 6.4 0.00 0.00 0.00 66 1018.3
20260902090018 26 144 6.4 11.3 0.00 0.00 0.00 65 1018.4
20260902084505 26 153 3.2 11.3 0.00 0.00 0.00 65 1018.2
20260902083002 25 140 3.2 6.4 0.00 0.00 0.00 69 1018.1
20260902081503 25 141 4.8 8.0 0.00 0.00 0.00 70 1018.2
20260902074559 25 130 3.2 8.0 0.00 0.00 0.00 69 1017.9
20260902073057 25 51 3.2 8.0 0.00 0.00 0.00 71 1018.0
20260902071554 24 40 3.2 8.0 0.00 0.00 0.00 73 1018.1
20260902070050 24 44 3.2 9.7 0.00 0.00 0.00 74 1017.8
20260902064545 23 32 1.6 4.8 0.00 0.00 0.00 77 1017.7
20260902063053 23 355 4.8 6.4 0.00 0.00 0.00 79 1017.7
20260902061557 22 348 3.2 6.4 0.00 0.00 0.00 82 1017.5
20260902060039 21 61 3.2 8.0 0.00 0.00 0.00 84 1017.6
20260902054528 20 42 4.8 8.0 0.00 0.00 0.00 85 1017.5
20260902053022 20 40 3.2 6.4 0.00 0.00 0.00 86 1017.4
20260902051519 20 30 3.2 9.7 0.00 0.00 0.00 86 1017.2
20260902050021 20 45 4.8 8.0 0.00 0.00 0.00 86 1017.2
20260902044524 20 5 3.2 9.7 0.00 0.00 0.00 86 1017.2
20260902043014 20 34 3.2 6.4 0.00 0.00 0.00 86 1017.2
20260902041513 20 27 3.2 8.0 0.00 0.00 0.00 86 1017.0
20260902040012 20 42 6.4 9.7 0.00 0.00 0.00 86 1017.0
20260902034511 20 350 3.2 8.0 0.00 0.00 0.00 85 1016.9